sat.trackr.live / text

‹ back to catalog

STARLINK-5991

NORAD 56331 · 2023-058Q

PAYLOAD ACTIVE UNKNOWN

§ Identity

Operator
Country
US
Launch date
2023-04-27
Launch site
AFWTR
Launch vehicle
Mass (kg)
RCS (m²)

Purposes: comms

External: N2YO · Heavens-Above · Gunter

§ Orbital elements

Epoch: 2026-09-20T22:00:03.000096Z

Period
94.57 min
Inclination
97.2865°
Eccentricity
0.0001707
Mean motion
15.22642070 rev/d
Perigee alt
496.7 km
Apogee alt
499.0 km
Semi-major
6,876.0 km
B*
3.5473e-3
RAAN
257.7997°
Arg perigee
59.5592°
Mean anomaly
100.7008°
Rev number
578

§ Raw data

STARLINK-59911 56331U 23058Q   26263.91670139  .00083332  00000+0  35473-2 0  99932 56331  97.2865 257.7997 0001707  59.5592 100.7008 15.22642070  5788

JSON: /api/v1/satellites/56331 · /tle

For live sub-satellite position, see the globe view (requires WebGL).

§ Visibility from observer

Set your observer location to see the next 7 days of passes ≥ 10°. The values pass through the URL so the page stays shareable.

No JS? Fill the form by hand. The geolocation button needs JavaScript.